| time (UTC) | temp C | wind direction | speed KPH | gust KPH | rain 1hr cm | rain 24hr cm | rain mn cm | humidity % | barometer mb |
| 20260509013027 | 16 | 153 | 4.8 | 8.0 | 0.00 | 0.00 | 0.00 | 54 | 1031.3 |
| 20260509012024 | 16 | 134 | 3.2 | 6.4 | 0.00 | 0.00 | 0.00 | 55 | 1031.5 |
| 20260509011021 | 16 | 150 | 3.2 | 8.0 | 0.00 | 0.00 | 0.00 | 56 | 1031.5 |
| 20260509010017 | 16 | 132 | 3.2 | 8.0 | 0.00 | 0.00 | 0.00 | 57 | 1031.4 |
| 20260509005035 | 15 | 148 | 3.2 | 6.4 | 0.00 | 0.00 | 0.00 | 58 | 1031.5 |
| 20260509004032 | 15 | 87 | 3.2 | 8.0 | 0.00 | 0.00 | 0.00 | 60 | 1031.6 |
| 20260509003029 | 14 | 63 | 6.4 | 9.7 | 0.00 | 0.00 | 0.00 | 62 | 1031.4 |
| 20260509002026 | 13 | 189 | 3.2 | 8.0 | 0.00 | 0.00 | 0.00 | 65 | 1031.3 |
| 20260509001021 | 13 | 305 | 3.2 | 6.4 | 0.00 | 0.00 | 0.00 | 69 | 1031.2 |
| 20260509000017 | 12 | 8 | 6.4 | 14.5 | 0.00 | 0.00 | 0.00 | 71 | 1031.2 |
| 20260508235034 | 12 | 176 | 3.2 | 6.4 | 0.00 | 0.00 | 0.00 | 72 | 1031.3 |
| 20260508234030 | 11 | 197 | 4.8 | 8.0 | 0.00 | 0.00 | 0.00 | 75 | 1031.1 |
| 20260508233027 | 10 | 333 | 4.8 | 6.4 | 0.00 | 0.00 | 0.00 | 77 | 1031.1 |
| 20260508232023 | 10 | 18 | 8.0 | 11.3 | 0.00 | 0.00 | 0.00 | 77 | 1031.1 |
| 20260508231020 | 10 | 337 | 6.4 | 9.7 | 0.00 | 0.00 | 0.00 | 79 | 1031.0 |
| 20260508230017 | 9 | 120 | 4.8 | 6.4 | 0.00 | 0.00 | 0.00 | 80 | 1031.0 |
| 20260508225035 | 8 | 225 | 1.6 | 6.4 | 0.00 | 0.00 | 0.00 | 80 | 1030.9 |
| 20260508224032 | 8 | 159 | 4.8 | 8.0 | 0.00 | 0.00 | 0.00 | 78 | 1030.9 |
| 20260508223028 | 8 | 111 | 4.8 | 11.3 | 0.00 | 0.00 | 0.00 | 77 | 1030.8 |
| 20260508222023 | 9 | 47 | 1.6 | 4.8 | 0.00 | 0.00 | 0.00 | 76 | 1030.8 |
| 20260508221019 | 9 | 231 | 4.8 | 8.0 | 0.00 | 0.00 | 0.00 | 75 | 1030.7 |
| 20260508220016 | 10 | 19 | 6.4 | 9.7 | 0.00 | 0.00 | 0.00 | 74 | 1030.8 |
| 20260508215032 | 10 | 76 | 3.2 | 8.0 | 0.00 | 0.00 | 0.00 | 74 | 1030.7 |
| 20260508214030 | 10 | 1 | 6.4 | 9.7 | 0.00 | 0.00 | 0.00 | 73 | 1030.7 |
| 20260508213026 | 11 | 73 | 6.4 | 9.7 | 0.00 | 0.00 | 0.00 | 72 | 1030.5 |
| 20260508212023 | 11 | 187 | 8.0 | 12.9 | 0.00 | 0.00 | 0.00 | 71 | 1030.5 |
| 20260508211020 | 11 | 20 | 3.2 | 6.4 | 0.00 | 0.00 | 0.00 | 72 | 1030.5 |
| 20260508210016 | 11 | 126 | 1.6 | 9.7 | 0.00 | 0.00 | 0.00 | 70 | 1030.3 |
| 20260508205032 | 11 | 223 | 6.4 | 11.3 | 0.00 | 0.00 | 0.00 | 68 | 1030.2 |
| 20260508204029 | 12 | 29 | 3.2 | 6.4 | 0.00 | 0.00 | 0.00 | 68 | 1030.1 |
| 20260508202022 | 12 | 67 | 0.0 | 3.2 | 0.00 | 0.00 | 0.00 | 66 | 1030.1 |
| 20260508201018 | 12 | 358 | 1.6 | 4.8 | 0.00 | 0.00 | 0.00 | 66 | 1029.9 |
| 20260508200016 | 12 | 29 | 1.6 | 6.4 | 0.00 | 0.00 | 0.00 | 68 | 1029.9 |
| 20260508195032 | 11 | 319 | 0.0 | 3.2 | 0.00 | 0.00 | 0.00 | 70 | 1029.9 |
| 20260508194029 | 11 | 334 | 0.0 | 3.2 | 0.00 | 0.00 | 0.00 | 71 | 1029.8 |
| 20260508193025 | 10 | 284 | 0.0 | 3.2 | 0.00 | 0.00 | 0.00 | 74 | 1029.7 |
| 20260508192023 | 10 | 295 | 0.0 | 3.2 | 0.00 | 0.00 | 0.00 | 74 | 1029.7 |
| 20260508191020 | 10 | 67 | 0.0 | 3.2 | 0.00 | 0.00 | 0.00 | 73 | 1029.8 |
| 20260508190016 | 10 | 50 | 1.6 | 3.2 | 0.00 | 0.00 | 0.00 | 73 | 1029.8 |
| 20260508185034 | 10 | 19 | 1.6 | 3.2 | 0.00 | 0.00 | 0.00 | 72 | 1029.7 |
| 20260508184031 | 11 | 44 | 1.6 | 4.8 | 0.00 | 0.00 | 0.00 | 71 | 1029.7 |
| 20260508183029 | 11 | 34 | 3.2 | 6.4 | 0.00 | 0.00 | 0.00 | 70 | 1029.8 |
| 20260508182025 | 11 | 39 | 1.6 | 4.8 | 0.00 | 0.00 | 0.00 | 70 | 1029.7 |
| 20260508181022 | 11 | 58 | 1.6 | 4.8 | 0.00 | 0.00 | 0.00 | 69 | 1029.8 |
| 20260508180018 | 11 | 56 | 1.6 | 4.8 | 0.00 | 0.00 | 0.00 | 69 | 1029.8 |
| 20260508175034 | 11 | 46 | 1.6 | 3.2 | 0.00 | 0.00 | 0.00 | 70 | 1029.7 |
| 20260508174031 | 11 | 327 | 0.0 | 3.2 | 0.00 | 0.00 | 0.00 | 71 | 1029.6 |
| 20260508173027 | 11 | 341 | 1.6 | 3.2 | 0.00 | 0.00 | 0.00 | 71 | 1029.6 |
| 20260508172023 | 11 | 25 | 1.6 | 3.2 | 0.00 | 0.00 | 0.00 | 70 | 1029.7 |
| 20260508171020 | 11 | 55 | 1.6 | 3.2 | 0.00 | 0.00 | 0.00 | 69 | 1029.7 |
| 20260508170035 | 11 | 56 | 1.6 | 4.8 | 0.00 | 0.00 | 0.00 | 67 | 1029.8 |
| 20260508165032 | 12 | 75 | 1.6 | 3.2 | 0.00 | 0.00 | 0.00 | 66 | 1029.8 |
| 20260508164029 | 12 | 63 | 1.6 | 3.2 | 0.00 | 0.00 | 0.00 | 65 | 1029.7 |
| 20260508163024 | 12 | 68 | 1.6 | 3.2 | 0.00 | 0.00 | 0.00 | 64 | 1029.6 |
| 20260508162020 | 12 | 39 | 1.6 | 3.2 | 0.00 | 0.00 | 0.00 | 63 | 1029.4 |
| 20260508161016 | 13 | 60 | 1.6 | 3.2 | 0.00 | 0.00 | 0.00 | 62 | 1029.4 |
| 20260508160030 | 13 | 58 | 1.6 | 3.2 | 0.00 | 0.00 | 0.00 | 62 | 1029.4 |
| 20260508155027 | 12 | 36 | 1.6 | 3.2 | 0.00 | 0.00 | 0.00 | 66 | 1029.4 |
| 20260508154022 | 11 | 16 | 1.6 | 4.8 | 0.00 | 0.00 | 0.00 | 72 | 1029.7 |
| 20260508153019 | 11 | 44 | 1.6 | 4.8 | 0.00 | 0.00 | 0.00 | 71 | 1029.7 |
| 20260508152016 | 12 | 54 | 1.6 | 3.2 | 0.00 | 0.00 | 0.00 | 70 | 1029.6 |
| 20260508151033 | 12 | 55 | 1.6 | 4.8 | 0.00 | 0.00 | 0.00 | 69 | 1029.7 |
| 20260508150029 | 12 | 20 | 1.6 | 3.2 | 0.00 | 0.00 | 0.00 | 68 | 1029.8 |
| 20260508145025 | 13 | 78 | 1.6 | 3.2 | 0.00 | 0.00 | 0.00 | 65 | 1029.7 |
| 20260508144020 | 13 | 96 | 0.0 | 3.2 | 0.00 | 0.00 | 0.00 | 63 | 1029.8 |
| 20260508143017 | 14 | 85 | 1.6 | 3.2 | 0.00 | 0.00 | 0.00 | 61 | 1029.8 |
| 20260508142033 | 15 | 55 | 0.0 | 3.2 | 0.00 | 0.00 | 0.00 | 59 | 1029.8 |
| 20260508141030 | 15 | 74 | 0.0 | 3.2 | 0.00 | 0.00 | 0.00 | 58 | 1029.6 |
| 20260508140026 | 15 | 91 | 0.0 | 3.2 | 0.00 | 0.00 | 0.00 | 60 | 1029.8 |
| 20260508135022 | 14 | 59 | 0.0 | 3.2 | 0.00 | 0.00 | 0.00 | 63 | 1029.8 |
| 20260508134018 | 14 | 67 | 0.0 | 3.2 | 0.00 | 0.00 | 0.00 | 65 | 1029.9 |
| 20260508133034 | 15 | 88 | 0.0 | 1.6 | 0.00 | 0.00 | 0.00 | 62 | 1029.9 |
| 20260508132032 | 14 | 75 | 1.6 | 8.0 | 0.00 | 0.00 | 0.00 | 65 | 1029.8 |
| 20260508131030 | 15 | 87 | 0.0 | 3.2 | 0.00 | 0.00 | 0.00 | 63 | 1029.7 |
| 20260508130025 | 15 | 99 | 1.6 | 4.8 | 0.00 | 0.00 | 0.00 | 62 | 1029.8 |
| 20260508125022 | 15 | 107 | 0.0 | 3.2 | 0.00 | 0.00 | 0.00 | 60 | 1029.6 |
| 20260508124020 | 16 | 106 | 1.6 | 4.8 | 0.00 | 0.00 | 0.00 | 58 | 1029.5 |
| 20260508123016 | 16 | 79 | 1.6 | 6.4 | 0.00 | 0.00 | 0.00 | 58 | 1029.6 |
| 20260508122034 | 16 | 81 | 1.6 | 6.4 | 0.00 | 0.00 | 0.00 | 58 | 1029.5 |
| 20260508121030 | 16 | 90 | 1.6 | 4.8 | 0.00 | 0.00 | 0.00 | 60 | 1029.4 |
| 20260508120027 | 15 | 70 | 0.0 | 3.2 | 0.00 | 0.00 | 0.00 | 61 | 1029.5 |
| 20260508115024 | 16 | 45 | 0.0 | 4.8 | 0.00 | 0.00 | 0.00 | 60 | 1029.6 |
| 20260508114020 | 15 | 78 | 1.6 | 4.8 | 0.00 | 0.00 | 0.00 | 62 | 1029.6 |
| 20260508113018 | 15 | 126 | 1.6 | 3.2 | 0.00 | 0.00 | 0.00 | 64 | 1029.6 |
| 20260508112035 | 15 | 101 | 1.6 | 3.2 | 0.00 | 0.00 | 0.00 | 64 | 1029.6 |
| 20260508111030 | 15 | 79 | 1.6 | 3.2 | 0.00 | 0.00 | 0.00 | 63 | 1029.6 |
| 20260508110026 | 16 | 101 | 1.6 | 3.2 | 0.00 | 0.00 | 0.00 | 62 | 1029.6 |
| 20260508105022 | 16 | 146 | 0.0 | 3.2 | 0.00 | 0.00 | 0.00 | 59 | 1029.5 |
| 20260508104018 | 17 | 113 | 1.6 | 3.2 | 0.00 | 0.00 | 0.00 | 57 | 1029.5 |
| 20260508103035 | 17 | 137 | 1.6 | 3.2 | 0.00 | 0.00 | 0.00 | 56 | 1029.5 |
| 20260508102032 | 18 | 138 | 1.6 | 4.8 | 0.00 | 0.00 | 0.00 | 54 | 1029.3 |
| 20260508101030 | 18 | 135 | 3.2 | 6.4 | 0.00 | 0.00 | 0.00 | 52 | 1029.3 |
| 20260508100026 | 18 | 152 | 3.2 | 4.8 | 0.00 | 0.00 | 0.00 | 51 | 1029.3 |
| 20260508095023 | 20 | 150 | 4.8 | 6.4 | 0.00 | 0.00 | 0.00 | 49 | 1029.2 |
| 20260508094020 | 20 | 146 | 4.8 | 8.0 | 0.00 | 0.00 | 0.00 | 48 | 1029.2 |
| 20260508093018 | 20 | 137 | 4.8 | 8.0 | 0.00 | 0.00 | 0.00 | 47 | 1029.2 |
| 20260508092035 | 21 | 121 | 3.2 | 8.0 | 0.00 | 0.00 | 0.00 | 48 | 1028.9 |
| 20260508091032 | 21 | 117 | 3.2 | 8.0 | 0.00 | 0.00 | 0.00 | 47 | 1029.0 |
| 20260508090029 | 21 | 85 | 3.2 | 9.7 | 0.00 | 0.00 | 0.00 | 46 | 1028.8 |
| 20260508085026 | 22 | 83 | 1.6 | 8.0 | 0.00 | 0.00 | 0.00 | 45 | 1028.8 |
| 20260508084023 | 22 | 74 | 4.8 | 14.5 | 0.00 | 0.00 | 0.00 | 45 | 1028.8 |
| 20260508083019 | 22 | 72 | 4.8 | 9.7 | 0.00 | 0.00 | 0.00 | 44 | 1028.8 |
| 20260508082016 | 22 | 28 | 3.2 | 6.4 | 0.00 | 0.00 | 0.00 | 43 | 1028.8 |
| 20260508081034 | 22 | 59 | 3.2 | 8.0 | 0.00 | 0.00 | 0.00 | 44 | 1028.8 |
| 20260508080029 | 22 | 59 | 3.2 | 9.7 | 0.00 | 0.00 | 0.00 | 43 | 1028.8 |
| 20260508075025 | 23 | 51 | 1.6 | 8.0 | 0.00 | 0.00 | 0.00 | 43 | 1028.7 |
| 20260508074019 | 23 | 61 | 3.2 | 11.3 | 0.00 | 0.00 | 0.00 | 43 | 1028.8 |
| 20260508073016 | 23 | 87 | 3.2 | 8.0 | 0.00 | 0.00 | 0.00 | 43 | 1028.8 |
| 20260508072033 | 22 | 51 | 4.8 | 14.5 | 0.00 | 0.00 | 0.00 | 44 | 1028.9 |
| 20260508071032 | 22 | 65 | 4.8 | 16.1 | 0.00 | 0.00 | 0.00 | 44 | 1028.9 |
| 20260508070025 | 23 | 69 | 3.2 | 9.7 | 0.00 | 0.00 | 0.00 | 43 | 1029.0 |
| 20260508065022 | 22 | 65 | 3.2 | 11.3 | 0.00 | 0.00 | 0.00 | 44 | 1028.9 |
| 20260508064019 | 22 | 66 | 4.8 | 11.3 | 0.00 | 0.00 | 0.00 | 45 | 1029.0 |
| 20260508063016 | 22 | 55 | 3.2 | 14.5 | 0.00 | 0.00 | 0.00 | 44 | 1029.2 |
| 20260508062033 | 22 | 33 | 1.6 | 6.4 | 0.00 | 0.00 | 0.00 | 45 | 1029.1 |
| 20260508061031 | 22 | 12 | 3.2 | 9.7 | 0.00 | 0.00 | 0.00 | 45 | 1029.3 |
| 20260508060028 | 22 | 69 | 3.2 | 8.0 | 0.00 | 0.00 | 0.00 | 47 | 1029.5 |
| 20260508055025 | 22 | 52 | 3.2 | 11.3 | 0.00 | 0.00 | 0.00 | 47 | 1029.6 |
| 20260508054022 | 22 | 330 | 3.2 | 8.0 | 0.00 | 0.00 | 0.00 | 46 | 1029.5 |
| 20260508053019 | 22 | 70 | 4.8 | 14.5 | 0.00 | 0.00 | 0.00 | 46 | 1029.8 |
| 20260508052016 | 22 | 56 | 3.2 | 8.0 | 0.00 | 0.00 | 0.00 | 46 | 1029.8 |
| 20260508051034 | 22 | 8 | 3.2 | 12.9 | 0.00 | 0.00 | 0.00 | 46 | 1030.1 |
| 20260508050031 | 22 | 64 | 3.2 | 9.7 | 0.00 | 0.00 | 0.00 | 46 | 1030.3 |
| 20260508045029 | 21 | 5 | 3.2 | 8.0 | 0.00 | 0.00 | 0.00 | 47 | 1030.4 |
| 20260508044026 | 21 | 352 | 1.6 | 6.4 | 0.00 | 0.00 | 0.00 | 49 | 1030.5 |
| 20260508043023 | 21 | 79 | 3.2 | 12.9 | 0.00 | 0.00 | 0.00 | 50 | 1030.7 |
| 20260508042021 | 21 | 357 | 3.2 | 6.4 | 0.00 | 0.00 | 0.00 | 50 | 1030.9 |
| 20260508041018 | 21 | 62 | 3.2 | 9.7 | 0.00 | 0.00 | 0.00 | 50 | 1031.3 |
| 20260508040035 | 21 | 15 | 3.2 | 9.7 | 0.00 | 0.00 | 0.00 | 50 | 1031.4 |
| 20260508035033 | 21 | 43 | 3.2 | 9.7 | 0.00 | 0.00 | 0.00 | 51 | 1031.6 |
| 20260508034030 | 20 | 39 | 4.8 | 11.3 | 0.00 | 0.00 | 0.00 | 51 | 1032.0 |
| 20260508033027 | 20 | 2 | 1.6 | 6.4 | 0.00 | 0.00 | 0.00 | 50 | 1032.1 |
| 20260508032025 | 20 | 14 | 3.2 | 6.4 | 0.00 | 0.00 | 0.00 | 52 | 1032.2 |
| 20260508031022 | 20 | 7 | 3.2 | 8.0 | 0.00 | 0.00 | 0.00 | 52 | 1032.2 |
| 20260508030020 | 20 | 21 | 3.2 | 6.4 | 0.00 | 0.00 | 0.00 | 53 | 1032.3 |
| 20260508025018 | 19 | 6 | 3.2 | 8.0 | 0.00 | 0.00 | 0.00 | 54 | 1032.5 |
| 20260508024035 | 19 | 72 | 3.2 | 8.0 | 0.00 | 0.00 | 0.00 | 55 | 1032.5 |
| 20260508023033 | 18 | 95 | 3.2 | 16.1 | 0.00 | 0.00 | 0.00 | 58 | 1032.6 |
| 20260508022030 | 18 | 120 | 3.2 | 11.3 | 0.00 | 0.00 | 0.00 | 60 | 1032.8 |
| 20260508021028 | 18 | 121 | 3.2 | 9.7 | 0.00 | 0.00 | 0.00 | 61 | 1032.8 |
| 20260508020026 | 17 | 130 | 4.8 | 9.7 | 0.00 | 0.00 | 0.00 | 63 | 1033.1 |
| 20260508015022 | 17 | 116 | 4.8 | 12.9 | 0.00 | 0.00 | 0.00 | 64 | 1033.2 |
| 20260508014020 | 17 | 143 | 4.8 | 17.7 | 0.00 | 0.00 | 0.00 | 65 | 1033.4 |